Weather History for KPQN - April, 2014

Change the Weather History Date:

Saturday, April 19, 2014

  Actual Average Record
Temperature  
Mean Temperature 58 °F -  
Max Temperature 68 °F 56 °F 75 °F (2005)
Min Temperature 48 °F 35 °F 21 °F (2013)
Degree Days  
Heating Degree Days 7    
Growing Degree Days 8 (Base 50)    
Moisture  
Dew Point 38 °F    
Average Humidity 48    
Maximum Humidity 71    
Minimum Humidity 28    
Precipitation  
Precipitation 0.00 in - - ()
Sea Level Pressure  
Sea Level Pressure 29.97 in    
Wind  
Wind Speed 17 mph (SW)    
Max Wind Speed 25 mph    
Max Gust Speed 34 mph    
Visibility 10 miles    
Events      
Averages and records for this station are not official NWS values.
T = Trace of Precipitation, MM = Missing Value Source: NWS Daily Summary

Daily Weather History Graph

Daily Weather History Graph

Search for Another Location

Airport or City:

Trip Planner

Search our weather history database for the weather conditions in past years. The results will help you decide how hot, cold, wet, or windy it might be!

Date:

Astronomy

Apr. 19, 2014 Rise Set
Actual Time 6:35 AM CDT 8:14 PM CDT
Civil Twilight 6:04 AM CDT 8:44 PM CDT
Nautical Twilight 5:28 AM CDT 9:21 PM CDT
Astronomical Twilight 4:48 AM CDT 10:01 PM CDT
Moon 12:03 AM CDT (4/19) 9:50 AM CDT (4/19)
Length of Visible Light 14h 39m
Length of Day
13h 38m
Waning Gibbous, 78% of the Moon is Illuminated
Apr 19
Waning Gibbous
Apr 22
Last Quarter
Apr 29
New
May 6
First Quarter
May 14
Full

Hourly Weather History & Observations

Time (CDT) Temp. Dew Point Humidity Pressure Visibility Wind Dir Wind Speed Gust Speed Precip Events Conditions
12:13 AM 51.8 °F 35.6 °F 54% 29.93 in 10.0 mi South 20.7 mph 28.8 mph N/A   Clear
12:33 AM 51.8 °F 35.6 °F 54% 29.92 in 10.0 mi South 21.9 mph 28.8 mph N/A   Clear
12:54 AM 53.6 °F 37.4 °F 54% 29.93 in 10.0 mi South 21.9 mph 28.8 mph N/A   Clear
1:13 AM 51.8 °F 37.4 °F 58% 29.93 in 10.0 mi South 21.9 mph 26.5 mph N/A   Clear
1:33 AM 51.8 °F 37.4 °F 58% 29.93 in 10.0 mi South 19.6 mph 26.5 mph N/A   Clear
1:54 AM 51.8 °F 37.4 °F 58% 29.92 in 10.0 mi South 20.7 mph 29.9 mph N/A   Clear
2:13 AM 51.8 °F 37.4 °F 58% 29.91 in 10.0 mi South 21.9 mph 27.6 mph N/A   Clear
2:33 AM 51.8 °F 37.4 °F 58% 29.92 in 10.0 mi South 19.6 mph 26.5 mph N/A   Clear
2:54 AM 51.8 °F 39.2 °F 62% 29.94 in 10.0 mi South 18.4 mph 25.3 mph N/A   Clear
3:13 AM 51.8 °F 39.2 °F 62% 29.95 in 10.0 mi South 18.4 mph 24.2 mph N/A   Clear
3:33 AM 51.8 °F 39.2 °F 62% 29.94 in 10.0 mi South 19.6 mph 25.3 mph N/A   Clear
4:13 AM 51.8 °F 39.2 °F 62% 29.93 in 10.0 mi South 20.7 mph 25.3 mph N/A   Clear
4:33 AM 51.8 °F 39.2 °F 62% 29.94 in 10.0 mi South 20.7 mph - N/A   Clear
4:54 AM 51.8 °F 39.2 °F 62% 29.92 in 10.0 mi South 24.2 mph 27.6 mph N/A   Clear
5:13 AM 51.8 °F 39.2 °F 62% 29.91 in 10.0 mi South 24.2 mph 28.8 mph N/A   Clear
5:33 AM 51.8 °F 39.2 °F 62% 29.92 in 10.0 mi South 23.0 mph 26.5 mph N/A   Clear
5:53 AM 51.8 °F 39.2 °F 62% 29.93 in 10.0 mi South 21.9 mph 27.6 mph N/A   Clear
6:13 AM 50.0 °F 39.2 °F 66% 29.93 in 10.0 mi South 21.9 mph 28.8 mph N/A   Clear
7:13 AM 48.2 °F 39.2 °F 71% 29.93 in 10.0 mi South 23.0 mph - N/A   Clear
7:33 AM 50.0 °F 39.2 °F 66% 29.93 in 10.0 mi South 25.3 mph 29.9 mph N/A   Clear
7:53 AM 50.0 °F 41.0 °F 71% 29.93 in 10.0 mi South 24.2 mph 29.9 mph N/A   Clear
8:13 AM 51.8 °F 41.0 °F 67% 29.94 in 10.0 mi South 25.3 mph 29.9 mph N/A   Clear
8:33 AM 53.6 °F 41.0 °F 62% 29.95 in 10.0 mi South 23.0 mph 31.1 mph N/A   Clear
8:53 AM 53.6 °F 41.0 °F 62% 29.95 in 10.0 mi SSW 24.2 mph 29.9 mph N/A   Scattered Clouds
9:13 AM 55.4 °F 42.8 °F 63% 29.94 in 10.0 mi SSW 25.3 mph 32.2 mph N/A   Clear
9:33 AM 57.2 °F 42.8 °F 59% 29.95 in 10.0 mi SW 24.2 mph 34.5 mph N/A   Clear
9:53 AM 59.0 °F 42.8 °F 55% 29.96 in 10.0 mi SW 24.2 mph 32.2 mph N/A   Clear
10:13 AM 60.8 °F 42.8 °F 52% 29.96 in 10.0 mi SW 23.0 mph 31.1 mph N/A   Clear
10:33 AM 62.6 °F 42.8 °F 48% 29.95 in 10.0 mi SW 23.0 mph 26.5 mph N/A   Clear
10:53 AM 60.8 °F 42.8 °F 52% 29.96 in 10.0 mi SW 21.9 mph 25.3 mph N/A   Clear
11:13 AM 64.4 °F 42.8 °F 45% 29.97 in 10.0 mi SW 20.7 mph 25.3 mph N/A   Clear
11:33 AM 64.4 °F 42.8 °F 45% 29.97 in 10.0 mi WSW 18.4 mph 23.0 mph N/A   Clear
11:53 AM 64.4 °F 42.8 °F 45% 29.96 in 10.0 mi WSW 16.1 mph 21.9 mph N/A   Clear
12:14 PM 64.4 °F 44.6 °F 49% 29.97 in 10.0 mi West 10.4 mph 19.6 mph N/A   Clear
12:33 PM 66.2 °F 42.8 °F 43% 29.97 in 10.0 mi WSW 12.7 mph - N/A   Clear
12:53 PM 68.0 °F 44.6 °F 43% 29.97 in 10.0 mi West 15.0 mph - N/A   Clear
1:14 PM 66.2 °F 42.8 °F 43% 29.97 in 10.0 mi NW 15.0 mph - N/A   Clear
1:33 PM 64.4 °F 44.6 °F 49% 29.98 in 10.0 mi NW 12.7 mph - N/A   Clear
1:53 PM 64.4 °F 42.8 °F 45% 29.98 in 10.0 mi NW 12.7 mph 17.3 mph N/A   Clear
2:13 PM 64.4 °F 42.8 °F 45% 29.98 in 10.0 mi WNW 11.5 mph 18.4 mph N/A   Clear
2:33 PM 64.4 °F 42.8 °F 45% 29.99 in 10.0 mi NNW 9.2 mph 17.3 mph N/A   Clear
2:53 PM 64.4 °F 41.0 °F 42% 29.98 in 10.0 mi North 8.1 mph 16.1 mph N/A   Clear
3:14 PM 64.4 °F 37.4 °F 37% 29.99 in 10.0 mi North 8.1 mph - N/A   Clear
3:33 PM 64.4 °F 35.6 °F 34% 29.99 in 10.0 mi North 8.1 mph - N/A   Clear
3:53 PM 64.4 °F 33.8 °F 32% 30.00 in 10.0 mi North 8.1 mph 16.1 mph N/A   Clear
4:33 PM 66.2 °F 32.0 °F 28% 30.00 in 10.0 mi NNW 8.1 mph - N/A   Clear
4:53 PM 64.4 °F 30.2 °F 28% 29.99 in 10.0 mi NW 6.9 mph - N/A   Clear
5:13 PM 64.4 °F 32.0 °F 30% 29.99 in 10.0 mi North 3.5 mph - N/A   Clear
5:33 PM 64.4 °F 32.0 °F 30% 29.99 in 10.0 mi North 5.8 mph - N/A   Clear
5:53 PM 64.4 °F 32.0 °F 30% 29.99 in 10.0 mi NNW 3.5 mph - N/A   Clear
6:13 PM 64.4 °F 30.2 °F 28% 30.00 in 10.0 mi NNW 4.6 mph - N/A   Clear
6:33 PM 64.4 °F 33.8 °F 32% 30.00 in 10.0 mi NNW 10.4 mph - N/A   Clear
6:53 PM 64.4 °F 35.6 °F 34% 30.00 in 10.0 mi North 4.6 mph - N/A   Clear
7:13 PM 62.6 °F 35.6 °F 37% 30.00 in 10.0 mi Calm Calm - N/A   Scattered Clouds
7:33 PM 62.6 °F 35.6 °F 37% 30.00 in 10.0 mi North 3.5 mph - N/A   Scattered Clouds
7:53 PM 62.6 °F 33.8 °F 34% 29.99 in 10.0 mi NNE 6.9 mph - N/A   Scattered Clouds
8:13 PM 60.8 °F 33.8 °F 36% 30.00 in 10.0 mi Calm Calm - N/A   Clear
8:33 PM 59.0 °F 33.8 °F 39% 30.01 in 10.0 mi Calm Calm - N/A   Scattered Clouds
8:53 PM 57.2 °F 33.8 °F 41% 30.02 in 10.0 mi Calm Calm - N/A   Scattered Clouds
9:13 PM 57.2 °F 30.2 °F 36% 30.02 in 10.0 mi Calm Calm - N/A   Scattered Clouds
9:33 PM 57.2 °F 30.2 °F 36% 30.02 in 10.0 mi Calm Calm - N/A   Scattered Clouds
9:53 PM 55.4 °F 32.0 °F 41% 30.02 in 10.0 mi Calm Calm - N/A   Mostly Cloudy
10:13 PM 55.4 °F 33.8 °F 44% 30.02 in 10.0 mi Calm Calm - N/A   Overcast
10:33 PM 55.4 °F 32.0 °F 41% 30.02 in 10.0 mi Calm Calm - N/A   Overcast
10:53 PM 55.4 °F 30.2 °F 38% 30.02 in 10.0 mi Calm Calm - N/A   Overcast
11:13 PM 55.4 °F 33.8 °F 44% 30.03 in 10.0 mi Calm Calm - N/A   Overcast
11:33 PM 55.4 °F 33.8 °F 44% 30.03 in 10.0 mi Calm Calm - N/A   Overcast
11:53 PM 53.6 °F 33.8 °F 47% 30.02 in 10.0 mi Calm Calm - N/A   Overcast